Regional Weather Roundup
Issued by NWS Newport/Morehead, NC

Current Version | Previous Version | Text Only | Print | Product List | Glossary On
Versions: 1 2 3 4 5 6 7 8 9 10 11 12 13 14 15 16 17 18 19 20 21 22 23 24 25 26 27 28 29 30 31 32 33 34 35 36 37 38 39 40 41 42 43 44 45 46 47 48 49 50
000
ASUS42 KMHX 281614
RWRMHX
WEATHER ROUNDUP FOR EASTERN NORTH CAROLINA
NATIONAL WEATHER SERVICE NEWPORT/MOREHEAD CITY NC
1200 PM EDT SUN MAY 28 2017

NOTE: "FAIR" INDICATES FEW OR NO CLOUDS BELOW 12,000 FEET
WITH NO SIGNIFICANT WEATHER AND/OR OBSTRUCTIONS TO VISIBILITY

NCZ015>017-031-032-045>047-102-103-281700-
NORTH COAST

CITY           SKY/WX    TMP DP  RH WIND       PRES   REMARKS
EDENTON        CLOUDY    82  73  75 CALM      29.85F
ELIZABETH CITY CLOUDY    79  72  79 SE9       29.85F
KITTY HAWK     PTSUNNY   78  67  67 CALM      29.86S
MANTEO         CLOUDY    79  70  75 SW9       29.88R

$$

NCZ045>047-081-094-103-104-281700-
CENTRAL COAST

CITY           SKY/WX    TMP DP  RH WIND       PRES   REMARKS
FRISCO         SUNNY     82  73  74 SW8       29.89R

$$

NCZ095-097-098-100-101-281700-
SOUTHERN COAST

CITY           SKY/WX    TMP DP  RH WIND       PRES   REMARKS
BEAUFORT       SUNNY     82  74  76 SW17      29.89R
CEDAR ISLAND   NOT AVBL
JACKSONVILLE   MOSUNNY   86  71  60 SW14G20   29.87S
PINEY ISLAND   MOSUNNY  N/A N/A N/A SW17G25   29.87R
WILMINGTON     MOSUNNY   88  71  57 SW15      29.89S


$$

NCZ011>013-027>030-043-044-078>080-089-090>093-098-281700-
COASTAL PLAIN

CITY           SKY/WX    TMP DP  RH WIND       PRES   REMARKS
AHOSKIE        NOT AVBL
CLINTON        SUNNY     86  68  54 SW12G18   29.87F
ELIZABETHTOWN  SUNNY     87  65  48 W8        29.86F
GOLDSBORO      MOSUNNY   86  71  62 SW15G22   29.83F
GREENVILLE     MOSUNNY   86  70  58 SW12G20   29.87F
HAVELOCK       MOSUNNY   88  67  49 S15       29.89R
KENANSVILLE    MOSUNNY   86  68  54 SW9G17    29.86F
KINSTON        PTSUNNY   88  68  51 SW17G23   29.86S
NEW BERN       MOSUNNY   87  69  54 SW12G21   29.88R
RICHLANDS      MOSUNNY   87  72  60 SW13G20   29.88S
ROCKY MOUNT    PTSUNNY   82  70  66 SW8       29.84F
WASHINGTON     MOSUNNY   85  71  63 SW10G18   29.85S
WHITEVILLE     SUNNY     86  68  54 SW9       29.87F

$$

AMZ130-135-150-152-154-156-158-170-250-252-270-ANZ085-086-088-633-658-670-281700-
MARINE OBSERVATIONS

STATION/POSITION TIME  TEMP    WIND        PRES    WAVE   SWELL
                       AIR SEA DIR/SP/G            HT/PER HT/PER
                 (UTC) (F)     (DEG/KT/KT) (MB)    (FT/S) (FT/S)
CHESAPEAKE LIGHT NOT AVBL
64 E VA BEACH    1550   68 66  170/  8/  8 1011.6    3/ 7   2/ 7
DUCK             1548   70 67  140/  9/  9 1011.0
2 E DUCK         1600      69                N/A     2/ 7
OREGON INLET     1542   74 73  120/  6/  9 1011.4
13E OREGON INLT  1548      67                N/A     3/ 7   2/ 7
HATTERAS CG      1548   78 74  200/  8/ 11 1011.9
DIAMOND BUOY     1550   76 77  220/ 12/ 14 1012.0    3/ 6   2/ 6
CAPE LOOKOUT     1600   79     230/ 12/ 17 1012.1
BEAUFORT LAB     1548   79 72  220/  8/ 12 1011.7
30 SE NEW RVR IN 1508   77 77  240/ 12/ 16 1012.7
30 SE NEW RVR IN 1543      77                N/A     4/ 5
27 SE WRIGHTSVLE 1508   76 77  220/ 14/ 19 1011.7
5 SE WRIGHTSVLE  1508   77 75  210/ 10/ 14 1012.3
225 S CAPE HAT   1550   77 77  230/ 16/ 19 1015.9    4/ 5   2/ 8
41 SE CHARLESTON 1600   77 76  220/ 10/ 12 1014.0

$$




USA.gov is the U.S. government's official web portal to all federal, state and local government web resources and services.